Content
SEND FEEDBACK

Daily
Averages
Monthly
Summary
United States of America

OJIBWA, WISCONSIN


Home > North America > United States > Wisconsin
Elevation: 1346 feet     Latitude: 45 52N     Longitude: 091 04W

WEATHER
 
SELECT A DAY
Number of Records: 211,837;   Date Range: 7/1/96 - 11/25/14
 
SHARE

PRINT THIS DATA

[ ← Previous Day ]
WEATHER ALMANAC - JANUARY 31, 2013
[ Next Day → ]
[ °C ]   °F
Weather ElementAverageHighLow
Temperature4.3 °F7 °F (12:53 am)-6 °F (11:53 pm)
Dewpoint-3.2 °F1.4 °F (12:26 am)-13 °F (11:53 pm)
Humidity71.1 %85 % (7:39 am)56 % (3:25 pm)
Barometer29.85 in30.21 in (11:53 pm)29.61 in (12:26 am)
Wind Speed5.3 mph9.2 mph (9:45 am)
Wind Gust17.3 mph (12:25 pm)
Weather ElementAverage
Visibility4.9 mi
Wind DirectionENE (51.8 °)

Weather ElementTotal
Precipitation---
Heating Degree Days64.5 (Base 65)
Averaged from 51 records on January 31, 2013
WEATHER CONDITIONS BREAKOUT
WIND DIRECTION BREAKOUT
WEATHER BY HOUR - JANUARY 31, 2013
[ °C ]   °F
Local TimeTemperatureDewpointHumidityBarometerVisibilityWind DirectionWind SpeedGust SpeedPrecipitationEventsConditions
12:26 AM6.8 °F1.4 °F79 %29.61 in10.0 miVariable4.6 mphOvercast
12:53 AM7.0 °F1.0 °F77 %29.70 in6.0 miVariable3.5 mph0.00 inSnowLight Snow
1:33 AM6.8 °F-0.4 °F72 %29.63 in2.5 miCalm0.00 inSnowLight Snow
1:40 AM6.8 °F-0.4 °F72 %29.63 in3.0 miVariable4.6 mph0.00 inSnowLight Snow
1:53 AM6.1 °F0.0 °F76 %29.72 in3.0 miVariable4.6 mph0.00 inSnowLight Snow
2:20 AM6.8 °F-0.4 °F72 %29.64 in2.5 miVariable5.8 mph0.00 inSnowLight Snow
2:31 AM6.8 °F-0.4 °F72 %29.64 in4.0 miVariable3.5 mph0.00 inSnowLight Snow
2:53 AM5.0 °F-2.0 °F73 %29.73 in10.0 miNW (310°)8.1 mph0.00 inOvercast
3:53 AM5.0 °F-2.0 °F73 %29.75 in4.0 miVariable4.6 mph0.00 inSnowLight Snow
4:10 AM5.0 °F-2.2 °F72 %29.66 in2.5 miVariable4.6 mph0.00 inSnowLight Snow
4:40 AM5.0 °F-0.4 °F78 %29.67 in3.0 miWNW (300°)5.8 mph0.00 inSnowLight Snow
5:53 AM5.0 °F-2.0 °F73 %29.77 in3.0 miVariable4.6 mph0.00 inSnowLight Snow
6:17 AM5.0 °F-0.4 °F78 %29.69 in2.5 miCalm0.00 inSnowLight Snow
6:31 AM5.0 °F-0.4 °F78 %29.70 in2.0 miVariable4.6 mph0.00 inSnowLight Snow
6:38 AM5.0 °F-0.4 °F78 %29.70 in1.8 miVariable4.6 mph0.00 inSnowLight Snow
6:53 AM5.0 °F-0.9 °F76 %29.79 in2.0 miVariable6.9 mph0.00 inSnowLight Snow
7:27 AM3.2 °F-2.2 °F78 %29.72 in2.5 miVariable3.5 mph0.00 inSnowLight Snow
7:39 AM3.2 °F-0.4 °F85 %29.73 in1.5 miVariable4.6 mph0.00 inSnowLight Snow
7:53 AM3.9 °F-2.0 °F76 %29.83 in1.5 miVariable4.6 mph0.00 inSnowLight Snow
8:15 AM3.2 °F-2.2 °F78 %29.75 in1.0 miVariable5.8 mph0.00 inSnowLight Snow
8:22 AM3.2 °F-2.2 °F78 %29.75 in0.8 miWNW (290°)8.1 mph0.00 inSnowLight Snow
8:41 AM3.2 °F-2.2 °F78 %29.76 in1.2 miVariable4.6 mph0.00 inSnowLight Snow
8:53 AM3.9 °F-2.0 °F76 %29.86 in1.2 miVariable5.8 mph0.00 inSnowLight Snow
9:07 AM3.2 °F-2.2 °F78 %29.77 in1.2 miVariable6.9 mph0.00 inSnowLight Snow
9:14 AM3.2 °F-2.2 °F78 %29.78 in2.0 miVariable5.8 mph0.00 inSnowLight Snow
9:24 AM3.2 °F-2.2 °F78 %29.78 in5.0 miVariable4.6 mph0.00 inSnowLight Snow
9:45 AM3.2 °F-2.2 °F78 %29.79 in2.5 miWNW (300°)9.2 mph0.00 inSnowLight Snow
9:53 AM5.0 °F-2.9 °F70 %29.89 in5.0 miVariable6.9 mph0.00 inSnowLight Snow
10:53 AM6.1 °F-4.0 °F63 %29.92 in10.0 miVariable4.6 mph0.00 inOvercast
11:53 AM6.1 °F-2.9 °F67 %29.93 in5.0 miVariable4.6 mph0.00 inHaze
12:25 PM6.8 °F-2.2 °F67 %29.85 in1.8 miWNW (290°)9.2 mph17.3 mph0.00 inSnowLight Snow
12:48 PM6.8 °F-2.2 °F67 %29.86 in2.0 miVariable5.8 mph0.00 inSnowLight Snow
12:53 PM6.1 °F-2.9 °F67 %29.95 in2.0 miVariable4.6 mph0.00 inSnowLight Snow
1:17 PM6.8 °F-2.2 °F67 %29.86 in3.0 miVariable5.8 mph0.00 inSnowLight Snow
1:25 PM6.8 °F-2.2 °F67 %29.87 in2.0 miVariable4.6 mph0.00 inSnowLight Snow
1:35 PM6.8 °F-2.2 °F67 %29.87 in1.5 miWNW (290°)6.9 mph0.00 inSnowLight Snow
1:51 PM6.8 °F-4.0 °F61 %29.88 in3.0 miVariable4.6 mph0.00 inSnowLight Snow
1:53 PM6.1 °F-4.0 °F63 %29.97 in4.0 miVariable6.9 mph0.00 inSnowLight Snow
2:53 PM7.0 °F-5.1 °F58 %29.99 in10.0 miVariable4.6 mph0.00 inOvercast
3:25 PM6.8 °F-5.8 °F56 %29.91 in10.0 miVariable5.8 mphOvercast
3:53 PM5.0 °F-5.1 °F63 %30.02 in10.0 miVariable3.5 mphOvercast
4:53 PM5.0 °F-5.1 °F63 %30.05 in10.0 miVariable4.6 mphOvercast
5:53 PM3.9 °F-5.1 °F66 %30.08 in8.0 miWNW (290°)5.8 mphOvercast
6:43 PM3.2 °F-5.8 °F66 %30.00 in10.0 miVariable5.8 mphOvercast
6:53 PM3.0 °F-7.1 °F63 %30.11 in10.0 miWNW (300°)8.1 mphOvercast
7:53 PM1.0 °F-8.0 °F66 %30.13 in10.0 miVariable6.9 mphOvercast
8:53 PM0.0 °F-9.0 °F66 %30.16 in10.0 miVariable3.5 mphOvercast
9:17 PM-0.4 °F-9.4 °F66 %30.06 in10.0 miWest (270°)5.8 mphScattered Clouds
9:53 PM-2.0 °F-11.0 °F66 %30.17 in10.0 miVariable5.8 mphClear
10:53 PM-4.0 °F-11.9 °F69 %30.19 in10.0 miVariable4.6 mphClear
11:53 PM-6.0 °F-13.0 °F72 %30.21 in10.0 miVariable5.8 mphScattered Clouds
Hourly data recorded from KHYR, located miles away from Ojibwa, Wisconsin







STORIES FROM OUR PARTNERS